Вернуться в каталог

FENGYUN 1C DEB

АктивенSSO
NORAD 30013·DEBRIS·🇨🇳 China

Запущен May 10, 1999 с Taiyuan Satellite Launch Center

Loading…

Ближайшие Пролёты (ближайшие 24 часа)

TLE

СвежийSource: Space-Track

Эпоха: Sep 14, 2026, 08:54 UTC

1 30013U 99025MN  26257.37150344  .00000134  00000-0  14251-3 0  9995
2 30013  99.5582 288.6174 0127955  31.0176 342.0804 13.87980031995059

Отслеживайте FENGYUN 1C DEB в реальном времени с AllMySat

Download on the App Store